Location: Unspecified
(0.0000°N, 0.0000°E)
Time: 05:08:30
(UTC+00:00)

Vanguard 3 - All Passes

Search period start: 28 September 2016 00:00
Search period end: 08 October 2016 00:00
Orbit: 508 x 3266 km, 33.4° (Epoch: 26 September)

Date Brightness Start Highest point End Pass type
(mag) Time Alt. Az. Time Alt. Az. Time Alt. Az.
28 Sep - 01:36:08 10° WNW 01:48:01 26° NNW 02:02:50 10° NNE visible
28 Sep - 03:59:24 10° NW 04:10:47 17° N 04:21:49 10° NE visible
28 Sep - 06:19:40 10° NNW 06:33:13 24° NNE 06:43:29 10° ENE daylight
28 Sep - 08:36:20 10° NW 08:51:09 51° NNE 08:59:41 10° ESE daylight
28 Sep - 10:54:07 10° WNW 11:04:42 48° SW 11:10:46 10° SSE daylight
28 Sep - 19:56:17 10° S 20:01:32 25° SE 20:09:27 10° E visible
28 Sep - 22:05:41 10° WSW 22:14:01 79° NW 22:29:18 10° NE night (unlit)
29 Sep - 00:19:44 10° W 00:30:32 33° NNW 00:46:10 10° NE visible
29 Sep - 02:40:19 10° NW 02:51:33 19° N 03:03:50 10° NNE visible
29 Sep - 05:02:20 10° NNW 05:15:02 20° N 05:26:01 10° NE visible
29 Sep - 07:19:40 10° NW 07:35:11 36° NNE 07:45:19 10° E daylight
29 Sep - 09:36:42 10° NW 09:50:49 88° SW 09:58:26 10° SE daylight
29 Sep - 11:57:28 10° W 12:02:48 17° SW 12:06:47 10° S daylight
29 Sep - 20:53:01 10° SW 20:59:44 62° SE 21:12:01 10° ENE visible
29 Sep - 23:04:51 10° W 23:14:07 44° NNW 23:29:30 10° NE visible
30 Sep - 01:22:14 10° WNW 01:32:57 22° NNW 01:46:21 10° NNE visible
30 Sep - 03:44:27 10° NNW 03:55:58 18° N 04:07:17 10° NE visible
30 Sep - 06:02:59 10° NNW 06:18:09 28° NNE 06:29:34 10° ENE daylight
30 Sep - 08:19:38 10° NW 08:35:55 61° NNE 08:45:14 10° ESE daylight
30 Sep - 10:38:23 10° WNW 10:49:24 40° SW 10:55:54 10° SSE daylight
30 Sep - 19:41:17 10° SSW 19:46:19 29° SE 19:54:10 10° E visible
30 Sep - 21:51:07 10° WSW 21:58:47 65° NNW 22:12:48 10° NE night (unlit)
01 Oct - 00:05:41 10° WNW 00:15:26 27° NNW 00:29:20 10° NNE visible
01 Oct - 02:26:16 10° NW 02:36:41 18° N 02:48:12 10° NNE visible
01 Oct - 04:46:14 10° NNW 05:00:02 22° NNE 05:12:05 10° ENE visible
01 Oct - 07:02:52 10° NW 07:19:55 44° NNE 07:31:00 10° E daylight
01 Oct - 09:20:23 10° WNW 09:35:27 75° SW 09:43:42 10° SE daylight
01 Oct - 11:42:46 10° WSW 11:47:40 15° SW 11:51:29 10° S daylight
01 Oct - 20:38:18 10° SW 20:44:31 76° SE 20:55:58 10° ENE visible
01 Oct - 22:50:36 10° W 22:59:02 36° NNW 23:12:41 10° NE night (unlit)
02 Oct - 01:08:30 10° NW 01:18:01 19° N 01:29:50 10° NNE visible
02 Oct - 03:29:17 10° NNW 03:41:05 18° N 03:52:52 10° NE visible
02 Oct - 05:46:22 10° NNW 06:02:53 32° NNE 06:15:24 10° E daylight
02 Oct - 08:03:01 10° NW 08:20:30 73° NE 08:30:36 10° ESE daylight
02 Oct - 10:22:41 10° WNW 10:34:02 35° SW 10:40:56 10° SSE daylight
02 Oct - 19:26:20 10° SSW 19:31:09 34° SE 19:38:50 10° ENE visible
02 Oct - 21:36:41 10° WSW 21:43:43 52° NNW 21:56:15 10° NE visible
02 Oct - 23:51:53 10° WNW 00:00:29 23° NNW 00:12:26 10° NNE visible
03 Oct - 02:12:08 10° NNW 02:21:53 17° N 02:32:45 10° NE visible
03 Oct - 04:30:05 10° NNW 04:44:53 25° NNE 04:58:00 10° ENE visible
03 Oct - 06:46:09 10° NW 07:04:27 51° NNE 07:16:29 10° ESE daylight
03 Oct - 09:04:08 10° WNW 09:19:56 65° SW 09:28:51 10° SE daylight
03 Oct - 11:28:13 10° WSW 11:32:33 13° SW 11:36:03 10° SSW daylight
03 Oct - 18:16:18 10° SSE 18:18:07 12° SE 18:20:09 10° ESE visible
03 Oct - 20:23:40 10° SW 20:29:25 87° NW 20:39:55 10° NE visible
03 Oct - 22:36:34 10° WNW 22:44:06 29° NNW 22:55:48 10° NNE night (unlit)
04 Oct - 00:54:58 10° NW 01:03:14 17° N 01:13:20 10° NNE visible
04 Oct - 03:13:57 10° NNW 03:26:07 20° NNE 03:38:31 10° NE visible
04 Oct - 05:29:48 10° NW 05:47:26 38° NNE 06:01:01 10° E visible
04 Oct - 07:46:27 10° NW 08:04:54 83° NE 08:15:49 10° ESE daylight
04 Oct - 10:07:04 10° W 10:18:36 31° SW 10:25:54 10° SSE daylight
04 Oct - 19:11:28 10° SSW 19:16:03 42° SE 19:23:27 10° ENE visible
04 Oct - 21:22:25 10° W 21:28:47 40° NNW 21:39:41 10° NE visible
04 Oct - 23:38:22 10° NW 23:45:41 18° NNW 23:55:26 10° NNE visible
05 Oct - 01:57:50 10° NNW 02:07:06 16° N 02:17:31 10° NE visible
05 Oct - 04:13:56 10° NNW 04:29:33 28° NNE 04:43:43 10° ENE visible
05 Oct - 06:29:32 10° NW 06:48:47 59° NNE 07:01:46 10° ESE daylight
05 Oct - 08:47:56 10° WNW 09:04:16 57° SW 09:13:52 10° SE daylight
05 Oct - 11:13:54 10° WSW 11:17:26 12° SW 11:20:27 10° SSW daylight
05 Oct - 18:00:37 10° S 18:03:06 14° SE 18:06:05 10° ESE daylight
05 Oct - 20:09:09 10° WSW 20:14:27 68° NNW 20:23:51 10° NE visible
05 Oct - 22:22:48 10° WNW 22:29:19 23° NNW 22:38:51 10° NNE night (unlit)
06 Oct - 00:41:34 10° NNW 00:48:32 15° N 00:56:52 10° NNE visible
06 Oct - 02:58:28 10° NNW 03:11:02 21° NNE 03:24:09 10° ENE visible
06 Oct - 05:13:20 10° NW 05:31:46 43° NNE 05:46:25 10° E visible
06 Oct - 07:29:58 10° NW 07:49:06 86° SW 08:00:53 10° SE daylight
06 Oct - 09:51:32 10° W 10:03:08 28° SW 10:10:46 10° SSE daylight
06 Oct - 18:56:41 10° SW 19:01:02 55° SE 19:08:02 10° ENE visible
06 Oct - 21:08:19 10° W 21:13:59 30° NNW 21:23:04 10° NNE visible
06 Oct - 23:25:14 10° NW 23:31:00 15° N 23:38:16 10° NNE night (unlit)
07 Oct - 01:43:20 10° NNW 01:52:17 16° N 02:02:29 10° NE visible
07 Oct - 03:57:48 10° NNW 04:14:02 31° NNE 04:29:14 10° E visible
07 Oct - 06:13:01 10° NW 06:32:56 68° NE 06:46:53 10° ESE daylight
07 Oct - 08:31:50 10° WNW 08:48:32 50° SW 08:58:48 10° SSE daylight
07 Oct - 10:59:56 10° SW 11:02:23 11° SW 11:04:35 10° SSW daylight
07 Oct - 17:45:14 10° S 17:48:07 18° SE 17:51:41 10° E daylight
07 Oct - 19:54:45 10° WSW 19:59:36 49° NNW 20:07:46 10° NE visible
07 Oct - 22:09:24 10° NW 22:14:39 17° NNW 22:21:43 10° NNE night (unlit)
